Location: Casa Rossa
(45.2389°N, 12.2056°E)
Time: 23:27:28
(UTC+00:00)

H-2A R/B - Pass Details

Date: 14 July 2020
Orbit: 577 x 656 km, 98.5° (Epoch: 14 August)

Event Time Altitude Azimuth Distance (km) Brightness Sun altitude
Rises 02:03:01 0° 148° (SSE) 2,928 5.3 -13.2°
Reaches altitude 10° 02:05:18 10° 142° (SE) 2,013 4.6 -13.0°
Maximum altitude 02:09:28 45° 70° (ENE) 853 3.2 -12.5°
Drops below altitude 10° 02:13:35 10° 358° (N) 1,981 5.4 -12.0°
Sets 02:15:48 0° 352° (N) 2,877 6.1 -11.8°
